CW5377 Weather Reports


Display with metric or nautical units.
time (UTC)temp
F
wind
direction
speed
MPH
gust
MPH
rain 1hr
in
rain 24hr
in
rain mn
in
humidity
%
barometer
mb
20190720011644 81 109 0.0 0.0 0.00 0.01 0.01 85 1015.0
20190720011141 82 109 0.0 0.0 0.00 0.01 0.01 85 1015.0
20190720010641 82 109 0.0 0.0 0.00 0.01 0.01 84 1014.9
20190720010142 82 109 0.0 0.0 0.00 0.01 0.01 83 1014.9
20190720005636 83 109 0.0 0.0 0.00 0.01 0.01 82 1014.9
20190720005134 83 109 0.0 0.0 0.00 0.01 0.01 82 1014.9
20190720004635 83 109 0.0 0.0 0.00 0.01 0.01 80 1014.9
20190720004132 84 109 0.0 0.0 0.00 0.01 0.01 81 1014.9
20190720003630 84 109 0.0 0.0 0.00 0.01 0.01 80 1014.9
20190720003129 85 109 0.0 0.0 0.00 0.01 0.01 80 1014.9
20190720002629 85 109 0.0 0.0 0.00 0.01 0.01 79 1014.9
20190720002127 85 109 0.0 0.0 0.00 0.01 0.01 78 1014.8
20190720001629 86 109 0.0 0.0 0.00 0.01 0.01 77 1014.9
20190720001129 86 109 0.0 0.0 0.00 0.01 0.01 76 1014.9
20190720000625 87 109 0.0 0.0 0.00 0.01 0.01 76 1014.8
20190720000123 87 109 0.0 0.0 0.00 0.01 0.01 75 1014.8
20190719235624 87 109 0.0 0.0 0.00 0.01 0.01 74 1014.7
20190719235125 87 109 0.0 0.0 0.00 0.01 0.01 73 1014.7
20190719234623 87 109 0.0 0.0 0.00 0.01 0.01 71 1014.6
20190719234125 88 109 0.0 0.0 0.00 0.01 0.01 70 1014.7
20190719233624 89 109 0.0 0.0 0.00 0.01 0.01 69 1014.7
20190719233124 89 109 0.0 0.0 0.00 0.01 0.01 70 1014.6
20190719232624 89 109 0.0 0.0 0.00 0.01 0.01 66 1014.6
20190719232126 89 109 0.0 0.0 0.00 0.01 0.01 67 1014.6
20190719231624 90 109 0.0 0.0 0.00 0.01 0.01 66 1014.6
20190719231125 90 109 0.0 0.0 0.00 0.01 0.01 64 1014.5
20190719230623 90 109 0.0 2.0 0.00 0.01 0.01 62 1014.5
20190719230123 91 109 0.0 2.0 0.00 0.01 0.01 61 1014.5
20190719225624 90 132 0.0 0.0 0.00 0.02 0.01 61 1014.5
20190719225122 90 132 0.0 0.0 0.00 0.02 0.01 62 1014.5
20190719224623 90 132 0.0 0.0 0.00 0.02 0.01 62 1014.5
20190719224122 90 132 0.0 0.0 0.00 0.02 0.01 62 1014.6
20190719223622 91 132 0.0 0.0 0.00 0.02 0.01 61 1014.5
20190719223122 92 132 0.0 0.0 0.00 0.03 0.01 56 1014.6
20190719222625 91 132 0.0 0.0 0.00 0.12 0.01 60 1014.6
20190719222122 91 132 0.0 0.0 0.00 0.31 0.01 58 1014.6
20190719221624 91 132 0.0 0.0 0.00 0.31 0.01 61 1014.6
20190719221122 91 113 0.0 0.0 0.00 0.31 0.01 58 1014.6
20190719220622 91 113 0.0 0.0 0.00 0.31 0.01 59 1014.5
20190719220121 92 113 0.0 0.0 0.00 0.31 0.01 58 1014.5
20190719215619 92 113 0.0 0.0 0.00 0.31 0.01 59 1014.5
20190719215118 92 113 0.0 0.0 0.00 0.31 0.01 56 1014.5
20190719214618 93 113 0.0 0.0 0.00 0.31 0.01 61 1014.5
20190719214118 93 113 0.0 0.0 0.00 0.31 0.01 60 1014.5
20190719213618 92 113 0.0 2.0 0.00 0.31 0.01 56 1014.7
20190719213118 93 105 0.0 2.0 0.00 0.31 0.01 62 1014.8
20190719212618 93 105 0.0 2.0 0.00 0.31 0.01 53 1014.8
20190719211618 94 103 0.0 3.0 0.00 0.31 0.01 56 1014.9
20190719211114 95 84 0.0 3.0 0.00 0.31 0.01 52 1014.9
20190719210615 94 101 1.0 3.0 0.00 0.31 0.01 51 1014.9
20190719210113 94 101 2.0 7.0 0.00 0.31 0.01 52 1014.9
20190719205612 94 85 1.0 7.0 0.00 0.31 0.01 51 1015.1
20190719205113 94 109 1.0 3.0 0.00 0.31 0.01 52 1015.0
20190719204613 94 103 2.0 6.0 0.00 0.31 0.01 51 1015.2
20190719204114 95 105 1.0 6.0 0.00 0.31 0.01 50 1015.2
20190719203610 96 93 0.0 6.0 0.00 0.31 0.01 52 1015.2
20190719203111 96 148 0.0 2.0 0.00 0.31 0.01 51 1015.3
20190719202608 96 101 0.0 0.0 0.00 0.31 0.01 55 1015.3
20190719202106 95 101 0.0 2.0 0.00 0.31 0.01 56 1015.3
20190719201608 95 192 0.0 2.0 0.00 0.31 0.01 55 1015.4
20190719201105 95 145 0.0 1.0 0.00 0.31 0.01 53 1015.4
20190719200602 94 127 0.0 1.0 0.00 0.31 0.01 54 1015.5
20190719200104 95 111 0.0 0.0 0.00 0.31 0.01 55 1015.6
20190719195601 95 111 0.0 1.0 0.00 0.31 0.01 53 1015.5
20190719195100 96 111 0.0 2.0 0.00 0.31 0.01 51 1015.5
20190719194555 96 111 0.0 2.0 0.00 0.31 0.01 51 1015.6
20190719194052 95 169 0.0 2.0 0.00 0.31 0.01 56 1015.8
20190719193552 95 98 0.0 3.0 0.00 0.31 0.01 55 1015.9
20190719193052 94 98 0.0 3.0 0.00 0.31 0.01 58 1015.9
20190719192548 94 149 0.0 3.0 0.00 0.31 0.01 56 1016.0
20190719192049 93 149 1.0 3.0 0.00 0.31 0.01 52 1016.0
20190719191547 94 95 2.0 7.0 0.00 0.31 0.01 55 1016.0
20190719191047 94 120 2.0 7.0 0.00 0.31 0.01 55 1016.1
20190719190540 95 94 1.0 6.0 0.00 0.31 0.01 56 1016.2
20190719190040 96 155 0.0 0.0 0.00 0.31 0.01 55 1016.2
20190719185541 96 124 0.0 0.0 0.00 0.31 0.01 54 1016.2
20190719185038 95 125 0.0 0.0 0.00 0.31 0.01 56 1016.3
20190719184538 93 125 0.0 0.0 0.00 0.31 0.01 56 1016.3
20190719184037 93 64 1.0 8.0 0.00 0.31 0.01 59 1016.4
20190719183537 93 67 2.0 8.0 0.00 0.31 0.01 57 1016.5
20190719183037 94 90 1.0 5.0 0.00 0.31 0.01 57 1016.4
20190719182533 93 138 0.0 2.0 0.00 0.31 0.01 58 1016.4
20190719182034 94 101 0.0 1.0 0.00 0.31 0.01 56 1016.6
20190719181534 93 130 0.0 1.0 0.00 0.31 0.01 59 1016.6
20190719181035 93 130 0.0 0.0 0.00 0.31 0.01 60 1016.6
20190719180533 92 130 0.0 1.0 0.00 0.31 0.01 58 1016.7
20190719180035 93 129 0.0 1.0 0.00 0.31 0.01 56 1016.8
20190719175535 94 174 0.0 2.0 0.00 0.31 0.01 51 1016.9
20190719175035 94 175 1.0 2.0 0.00 0.31 0.01 52 1016.9
20190719174535 93 146 1.0 2.0 0.00 0.31 0.01 53 1017.0
20190719174035 92 141 1.0 3.0 0.00 0.31 0.01 55 1016.9
20190719173529 92 147 0.0 3.0 0.00 0.31 0.01 54 1017.0
20190719173029 93 134 0.0 4.0 0.00 0.31 0.01 54 1017.1
20190719172531 92 127 1.0 4.0 0.00 0.31 0.01 59 1017.1
20190719172028 92 146 1.0 2.0 0.00 0.31 0.01 58 1017.1
20190719171529 92 124 2.0 6.0 0.00 0.31 0.01 60 1017.1
20190719171027 91 103 2.0 6.0 0.00 0.31 0.01 58 1017.2
20190719170528 92 92 1.0 3.0 0.00 0.31 0.01 59 1017.2
20190719170029 93 120 0.0 2.0 0.00 0.31 0.01 55 1017.2
20190719165523 93 153 0.0 2.0 0.00 0.31 0.01 62 1017.2
20190719165023 92 153 1.0 5.0 0.00 0.31 0.01 58 1017.2
20190719164524 92 109 2.0 5.0 0.00 0.31 0.01 59 1017.3
20190719164025 92 57 1.0 3.0 0.00 0.31 0.01 59 1017.2
20190719163523 92 109 1.0 7.0 0.00 0.31 0.01 57 1017.3
20190719163023 92 128 1.0 7.0 0.00 0.31 0.01 61 1017.4
20190719162525 91 167 1.0 5.0 0.00 0.31 0.01 61 1017.4
20190719162023 91 135 1.0 5.0 0.00 0.31 0.01 59 1017.4
20190719161524 90 80 1.0 5.0 0.00 0.31 0.01 61 1017.4
20190719161021 90 135 2.0 7.0 0.00 0.31 0.01 63 1017.4
20190719160522 89 103 2.0 7.0 0.00 0.31 0.01 62 1017.4
20190719160018 89 128 2.0 6.0 0.00 0.31 0.01 62 1017.4
20190719155517 89 83 2.0 6.0 0.00 0.31 0.01 64 1017.5
20190719155019 90 96 1.0 6.0 0.00 0.31 0.01 60 1017.5
20190719154519 91 166 0.0 3.0 0.00 0.31 0.01 62 1017.5
20190719154019 89 182 1.0 6.0 0.00 0.31 0.01 62 1017.5
20190719153516 89 142 1.0 6.0 0.00 0.31 0.01 61 1017.5
20190719153015 90 199 0.0 3.0 0.00 0.31 0.01 61 1017.5
20190719152513 90 154 0.0 2.0 0.00 0.31 0.01 62 1017.6
20190719152013 89 153 0.0 2.0 0.00 0.31 0.01 66 1017.5
20190719151515 88 164 1.0 5.0 0.00 0.31 0.01 67 1017.5
20190719151012 88 164 0.0 5.0 0.00 0.31 0.01 65 1017.6
20190719150513 87 160 0.0 3.0 0.00 0.31 0.01 66 1017.6
20190719150012 87 160 1.0 3.0 0.00 0.31 0.01 68 1017.6
20190719145511 86 135 1.0 3.0 0.00 0.31 0.01 72 1017.6
20190719145007 86 127 1.0 3.0 0.00 0.31 0.01 70 1017.5
20190719144504 86 128 0.0 3.0 0.00 0.31 0.01 74 1017.4
20190719144003 85 138 0.0 3.0 0.00 0.31 0.01 77 1017.4
20190719143501 85 109 1.0 3.0 0.00 0.31 0.01 76 1017.5
20190719143001 84 90 1.0 3.0 0.00 0.31 0.01 76 1017.4
20190719142501 84 102 0.0 3.0 0.00 0.31 0.01 78 1017.6
20190719142002 84 134 0.0 0.0 0.00 0.31 0.01 80 1017.6
20190719141502 83 134 0.0 1.0 0.00 0.31 0.01 80 1017.6
20190719141000 83 134 0.0 1.0 0.00 0.31 0.01 83 1017.6
20190719140500 82 134 0.0 1.0 0.00 0.31 0.01 83 1017.6
20190719135959 82 134 0.0 1.0 0.00 0.31 0.01 85 1017.6
20190719135459 81 134 0.0 1.0 0.00 0.31 0.01 85 1017.5
20190719134959 81 134 0.0 1.0 0.00 0.31 0.01 86 1017.6
20190719134458 80 134 0.0 1.0 0.00 0.31 0.01 88 1017.4
20190719133958 80 138 0.0 0.0 0.00 0.31 0.01 90 1017.5
20190719133458 79 139 0.0 0.0 0.00 0.31 0.01 91 1017.4
20190719132952 78 138 0.0 0.0 0.00 0.31 0.01 91 1017.4
20190719132452 78 138 0.0 0.0 0.00 0.31 0.01 92 1017.3
20190719131952 77 138 0.0 0.0 0.00 0.31 0.01 92 1017.3
20190719131452 77 138 0.0 0.0 0.00 0.31 0.01 93 1017.3
20190719130954 77 138 0.0 0.0 0.00 0.31 0.01 93 1017.4
20190719130452 76 138 0.0 0.0 0.00 0.31 0.01 93 1017.3
20190719125954 77 138 0.0 0.0 0.00 0.31 0.01 93 1017.2
20190719125454 76 138 0.0 0.0 0.00 0.31 0.01 94 1017.2
20190719124951 76 139 0.0 0.0 0.00 0.31 0.01 94 1017.2
20190719124450 75 138 0.0 0.0 0.01 0.31 0.01 94 1017.1
20190719123950 74 139 0.0 0.0 0.01 0.31 0.01 94 1017.0
20190719123451 74 138 0.0 0.0 0.01 0.31 0.01 94 1016.9
20190719122952 74 139 0.0 0.0 0.01 0.31 0.01 94 1016.9
20190719122450 74 139 0.0 0.0 0.01 0.31 0.01 93 1016.9
20190719121948 74 139 0.0 0.0 0.01 0.31 0.01 93 1016.8
20190719121445 74 138 0.0 0.0 0.01 0.31 0.01 93 1016.7
20190719120946 73 139 0.0 0.0 0.01 0.31 0.01 93 1016.7
20190719120445 73 139 0.0 0.0 0.01 0.31 0.01 93 1016.7
20190719115944 73 139 0.0 0.0 0.01 0.31 0.01 93 1016.6
20190719115443 73 139 0.0 0.0 0.01 0.31 0.01 93 1016.5
20190719114939 73 139 0.0 0.0 0.01 0.31 0.01 93 1016.5
20190719114439 73 138 0.0 0.0 0.00 0.30 0.00 93 1016.4
20190719113939 72 138 0.0 0.0 0.00 0.30 0.00 93 1016.4
20190719113436 72 139 0.0 0.0 0.00 0.30 0.00 93 1016.4
20190719112935 72 139 0.0 0.0 0.00 0.30 0.00 93 1016.3
20190719112436 72 139 0.0 0.0 0.00 0.30 0.00 93 1016.2
20190719111932 72 139 0.0 0.0 0.00 0.30 0.00 93 1016.2
20190719111430 72 139 0.0 0.0 0.00 0.30 0.00 93 1016.1
20190719110931 72 139 0.0 0.0 0.00 0.30 0.00 93 1016.1
20190719110430 72 138 0.0 0.0 0.00 0.30 0.00 93 1016.1
20190719105931 72 139 0.0 0.0 0.00 0.30 0.00 93 1016.0
20190719105430 71 138 0.0 0.0 0.00 0.30 0.00 93 1016.1
20190719104928 71 139 0.0 0.0 0.00 0.30 0.00 93 1015.9
20190719104429 71 139 0.0 0.0 0.00 0.30 0.00 93 1015.8
20190719103924 71 139 0.0 0.0 0.00 0.30 0.00 93 1015.5
20190719103425 71 139 0.0 0.0 0.00 0.30 0.00 93 1015.6
20190719102923 71 139 0.0 0.0 0.00 0.30 0.00 93 1015.8
20190719102423 71 138 0.0 0.0 0.00 0.30 0.00 93 1015.6
20190719101919 71 138 0.0 0.0 0.00 0.30 0.00 93 1015.5
20190719101421 71 139 0.0 0.0 0.00 0.30 0.00 93 1015.5
20190719100920 71 139 0.0 0.0 0.00 0.30 0.00 93 1015.5
20190719100421 71 139 0.0 0.0 0.00 0.30 0.00 93 1015.4
20190719095921 71 139 0.0 0.0 0.00 0.30 0.00 93 1015.4
20190719095421 71 138 0.0 0.0 0.00 0.30 0.00 93 1015.3
20190719094921 71 139 0.0 0.0 0.00 0.30 0.00 93 1015.3
20190719094421 71 139 0.0 0.0 0.00 0.30 0.00 93 1015.2
20190719093921 71 139 0.0 0.0 0.00 0.30 0.00 93 1015.3
20190719093419 71 139 0.0 0.0 0.00 0.30 0.00 93 1015.3
20190719092922 72 139 0.0 0.0 0.00 0.30 0.00 93 1015.4
20190719092420 72 138 0.0 0.0 0.00 0.30 0.00 93 1015.4
20190719091920 72 139 0.0 0.0 0.00 0.30 0.00 93 1015.3
20190719091419 72 138 0.0 0.0 0.00 0.30 0.00 93 1015.2
20190719090918 72 138 0.0 0.0 0.00 0.30 0.00 93 1015.3
20190719090417 72 139 0.0 0.0 0.00 0.30 0.00 93 1015.2
20190719085917 72 139 0.0 0.0 0.00 0.30 0.00 93 1015.2
20190719085417 72 139 0.0 0.0 0.00 0.30 0.00 93 1015.2
20190719084919 72 139 0.0 0.0 0.00 0.30 0.00 93 1015.1
20190719084418 72 139 0.0 0.0 0.00 0.30 0.00 93 1015.2
20190719083920 72 138 0.0 0.0 0.00 0.30 0.00 93 1015.2
20190719083420 72 138 0.0 0.0 0.00 0.30 0.00 92 1015.1
20190719082918 72 138 0.0 0.0 0.00 0.30 0.00 92 1015.1
20190719082419 72 139 0.0 0.0 0.00 0.30 0.00 92 1015.1
20190719081919 72 138 0.0 0.0 0.00 0.30 0.00 92 1015.1
20190719081417 72 138 0.0 0.0 0.00 0.30 0.00 92 1015.1
20190719080919 72 139 0.0 0.0 0.00 0.30 0.00 92 1015.1
20190719080418 72 139 0.0 0.0 0.00 0.30 0.00 92 1015.2
20190719075919 72 139 0.0 0.0 0.00 0.30 0.00 92 1015.1
20190719075417 72 138 0.0 0.0 0.00 0.30 0.00 92 1015.0
20190719074917 72 138 0.0 0.0 0.00 0.30 0.00 92 1015.0
20190719074419 72 138 0.0 0.0 0.00 0.30 0.00 92 1015.1
20190719073917 72 139 0.0 0.0 0.00 0.30 0.00 92 1015.1
20190719073418 72 138 0.0 0.0 0.00 0.30 0.00 92 1015.1
20190719072913 72 139 0.0 0.0 0.00 0.30 0.00 92 1015.1
20190719072413 72 139 0.0 0.0 0.00 0.30 0.00 92 1015.1
20190719071914 72 139 0.0 0.0 0.00 0.30 0.00 92 1015.2
20190719071414 72 138 0.0 0.0 0.00 0.30 0.00 92 1015.2
20190719070914 72 139 0.0 0.0 0.00 0.30 0.00 92 1015.3
20190719070414 72 139 0.0 0.0 0.00 0.30 0.00 92 1015.3
20190719065914 72 139 0.0 0.0 0.00 0.30 0.00 92 1015.4
20190719065412 72 139 0.0 0.0 0.00 0.30 0.00 92 1015.5
20190719064914 72 138 0.0 0.0 0.00 0.30 0.00 92 1015.5
20190719064413 72 139 0.0 0.0 0.00 0.30 0.00 92 1015.5
20190719063909 72 139 0.0 0.0 0.00 0.30 0.00 92 1015.5
20190719063410 72 138 0.0 0.0 0.00 0.30 0.00 92 1015.6
20190719062907 72 139 0.0 0.0 0.00 0.30 0.00 92 1015.6
20190719062404 72 139 0.0 0.0 0.00 0.30 0.00 92 1015.5
20190719061906 72 138 0.0 0.0 0.00 0.30 0.00 92 1015.6
20190719061403 72 138 0.0 0.0 0.00 0.30 0.00 92 1015.5
20190719060903 72 138 0.0 0.0 0.00 0.30 0.00 92 1015.5
20190719060403 72 138 0.0 0.0 0.00 0.30 0.00 92 1015.5
20190719055901 72 139 0.0 0.0 0.00 0.30 0.00 92 1015.5
20190719055402 72 138 0.0 0.0 0.00 0.30 0.00 92 1015.5
20190719054901 72 138 0.0 0.0 0.00 0.30 0.00 92 1015.6
20190719054401 73 138 0.0 0.0 0.00 0.30 0.00 92 1015.6
20190719053901 73 139 0.0 0.0 0.00 0.30 0.00 92 1015.6
20190719053402 73 139 0.0 0.0 0.00 0.30 0.00 92 1015.6
20190719052859 73 139 0.0 0.0 0.00 0.30 0.00 92 1015.5
20190719052400 73 138 0.0 0.0 0.00 0.30 0.00 92 1015.5
20190719051856 73 138 0.0 0.0 0.00 0.30 0.00 92 1015.5
20190719051356 73 138 0.0 0.0 0.00 0.30 0.00 92 1015.4
20190719050849 73 139 0.0 0.0 0.00 0.30 0.00 92 1015.4
20190719050347 73 138 0.0 0.0 0.00 0.30 0.00 92 1015.3
20190719045847 73 139 0.0 0.0 0.00 0.30 0.00 92 1015.3
20190719045347 73 138 0.0 0.0 0.00 0.30 0.00 92 1015.2
20190719044847 73 139 0.0 0.0 0.00 0.30 0.00 92 1015.2
20190719044347 73 138 0.0 0.0 0.00 0.30 0.00 92 1015.2
20190719043847 73 139 0.0 0.0 0.00 0.30 0.00 92 1015.2
20190719043349 73 139 0.0 0.0 0.00 0.30 0.00 92 1015.2
20190719042849 73 138 0.0 0.0 0.00 0.30 0.00 92 1015.3
20190719042348 73 138 0.0 0.0 0.00 0.30 0.00 92 1015.4
20190719041848 73 139 0.0 0.0 0.00 0.30 0.00 92 1015.4
20190719041347 73 139 0.0 0.0 0.00 0.30 0.00 92 1015.4
20190719040848 73 138 0.0 0.0 0.00 0.30 0.00 92 1015.5
20190719040347 73 138 0.0 0.0 0.00 0.30 0.00 92 1015.4
20190719035846 73 139 0.0 0.0 0.00 0.30 0.30 92 1015.5
20190719035346 73 139 0.0 0.0 0.00 0.30 0.30 92 1015.4
20190719034840 73 138 0.0 0.0 0.00 0.30 0.30 92 1015.3
20190719034340 73 138 0.0 0.0 0.00 0.30 0.30 91 1015.3
20190719033835 73 139 0.0 0.0 0.00 0.30 0.30 91 1015.3
20190719033331 73 139 0.0 0.0 0.00 0.30 0.30 91 1015.2
20190719032832 73 138 0.0 0.0 0.00 0.30 0.30 91 1015.1
20190719032331 73 138 0.0 0.0 0.00 0.30 0.30 91 1015.0
20190719031832 73 139 0.0 0.0 0.00 0.30 0.30 91 1015.0
20190719031332 73 139 0.0 0.0 0.00 0.30 0.30 91 1015.0
20190719030830 73 139 0.0 0.0 0.00 0.30 0.30 91 1015.0
20190719030327 73 139 0.0 0.0 0.00 0.30 0.30 91 1015.1
20190719025829 73 139 0.0 0.0 0.00 0.30 0.30 91 1015.2
20190719025327 73 139 0.0 0.0 0.00 0.30 0.30 91 1015.3
20190719024829 73 139 0.0 0.0 0.00 0.30 0.30 91 1015.2
20190719024325 73 139 0.0 0.0 0.00 0.30 0.30 91 1015.2
20190719023825 73 138 0.0 0.0 0.00 0.30 0.30 91 1015.1
20190719023325 73 138 0.0 0.0 0.00 0.30 0.30 91 1015.2
20190719022824 73 139 0.0 0.0 0.00 0.30 0.30 91 1015.2
20190719022326 73 139 0.0 0.0 0.00 0.30 0.30 91 1015.1
20190719021825 73 138 0.0 0.0 0.00 0.30 0.30 91 1015.2
20190719021323 73 139 0.0 0.0 0.00 0.30 0.30 91 1015.1
20190719020823 73 139 0.0 0.0 0.00 0.30 0.30 91 1015.0
20190719020322 73 138 0.0 0.0 0.00 0.30 0.30 91 1014.9
20190719015821 73 138 0.0 0.0 0.00 0.30 0.30 90 1014.7
20190719015320 73 138 0.0 0.0 0.00 0.30 0.30 90 1014.6
20190719014814 73 139 0.0 0.0 0.00 0.30 0.30 90 1014.5
20190719014317 73 139 0.0 0.0 0.00 0.30 0.30 90 1014.5
20190719013815 73 138 0.0 0.0 0.00 0.30 0.30 91 1014.4
20190719013315 73 139 0.0 0.0 0.00 0.30 0.30 90 1014.4
20190719012816 73 139 0.0 0.0 0.00 0.30 0.30 90 1014.4
20190719012316 74 138 0.0 0.0 0.00 0.30 0.30 90 1014.4
20190719011814 74 138 0.0 0.0 0.00 0.30 0.30 91 1014.3